User: anonymous   Login
Location: Charleston
(38.3500°N, 81.6330°W)
Time: 00:32:40
(UTC-05:00)
Language:

Cosmos 1812 Rocket - Orbit

View from above orbital plane
View from above orbital plane
View from above satellite
View from above satellite

Ground track
Ground track

The orbit data is extracted from the following two-line orbital elements,

1 17296U 87003B   14354.54856221  .00000964  00000-0  11600-3 0  8295
2 17296 082.5295 155.3447 0018470 342.8256 080.7886 14.82801846508302
Epoch (UTC): 20 December 2014 13:09:55
Eccentricity: 0.0018470
inclination: 82.5295°
perigee height: 607 km
apogee height: 633 km
right ascension of ascending node: 155.3447°
argument of perigee: 342.8256°
revolutions per day: 14.82801846
mean anomaly at epoch: 80.7886°
orbit number at epoch: 50830

The dashed part of the orbit path shows where the satellite is in the earth's shadow,  

DLR